Location: Craonne
(49.4394°N, 3.7871°E)
Time: 16:35:02
(UTC+00:00)

Daily predictions for brighter satellites

Satellite Brightness Start Highest point End
(mag) Time Altitude Azimuth Time Altitude Azimuth Time Altitude Azimuth
Terra 3.7 20:01:20 10° E 20:04:21 17° ENE 20:07:22 10° NNE
USA 215 3.9 19:58:26 10° ENE 20:04:53 62° NNW 20:11:19 10° W
Meteor 1-11 Rocket 4.1 20:01:30 10° N 20:07:22 53° ENE 20:13:04 10° SSE
Cosmos 1340 Rocket 4.2 20:05:30 10° N 20:08:54 25° ENE 20:12:16 10° SE
Resurs 1-3 4.1 20:07:22 10° S 20:11:43 61° W 20:16:05 10° NNW
Cosmos 1898 Rocket 4.3 20:09:28 10° SSE 20:14:11 33° ESE 20:18:56 10° NE
CZ-2C R/B 4.2 20:12:05 10° NNE 20:16:23 40° E 20:20:44 10° SSE
Cosmos 923 Rocket 4.1 20:14:14 10° NNW 20:19:32 86° ENE 20:24:51 10° SSE
USA 245 3.3 20:18:58 11° SE 20:20:53 29° ENE 20:23:13 10° N
ARIANE 5 R/B 3.3 20:18:58 10° SE 20:22:59 38° ENE 20:27:01 10° N
Cosmos 1271 Rocket 2.8 20:19:23 10° S 20:23:21 71° E 20:27:21 10° NNE
Cosmos 2278 Rocket 2.9 20:21:26 10° SW 20:27:02 61° WNW 20:32:41 10° NNE
Cosmos 1461 3.9 20:23:17 10° S 20:27:23 31° ESE 20:31:27 10° ENE
Cosmos 2369 Rocket 3.6 20:26:35 10° SE 20:30:19 19° E 20:34:08 10° ENE
Cosmos 1666 3.1 20:26:54 10° NNW 20:30:35 61° W 20:34:15 10° S
Cosmos 1818 3.7 20:26:03 10° NW 20:31:34 77° NE 20:36:36 12° SE
Meteor 1-10 Rocket 4.2 20:26:55 10° S 20:32:32 81° E 20:38:18 10° NNE
Landsat 7 3.9 20:29:01 10° S 20:33:46 80° WSW 20:38:34 10° NNW
SL-24 R/B - RUBIN 2 4.1 20:28:21 10° NW 20:33:51 74° SW 20:38:18 12° SSE
Cosmos 1536 3.0 20:32:32 10° N 20:36:32 59° ENE 20:40:06 12° SSE
ERBS 2.3 20:34:28 10° WNW 20:37:46 72° SW 20:40:21 15° SE
SPOT 5 3.6 20:39:51 13° SE 20:44:21 49° ENE 20:49:30 10° N
Cosmos 2154 Rocket 4.0 20:38:16 10° N 20:44:37 76° E 20:50:44 11° SSE
OBJECT-B 4.1 20:45:27 10° W 20:45:59 10° W 20:46:31 10° W
Cosmos 1812 4.2 20:42:21 10° SW 20:45:59 38° WNW 20:49:38 10° N
Nadezhda 1 Rocket 4.0 20:40:21 10° S 20:46:32 66° E 20:52:39 10° NNE
Cosmos 2074 Rocket 4.3 20:40:49 10° NNW 20:47:06 73° W 20:53:22 10° S
Cosmos 2184 Rocket 4.2 20:44:29 10° NNW 20:50:40 71° W 20:56:47 10° S
ERS-1 Rocket 3.2 20:49:06 15° SE 20:53:12 57° ENE 20:58:08 10° N
ISS -3.8 20:53:23 10° WSW 20:56:46 89° NNW 21:00:09 10° ENE
Cosmos 2112 Rocket 4.2 20:52:30 10° NNW 20:57:52 72° WSW 21:02:28 14° SSE
Cosmos 1869 Rocket 3.7 20:55:46 10° NNW 21:00:05 71° W 21:04:04 12° S
Cosmos 967 Rocket 4.4 20:55:23 10° SSW 21:01:36 75° SE 21:07:54 10° NE
JB-3 4.2 21:01:04 10° NNE 21:04:54 63° ESE 21:07:59 15° S
Spot 2 Rocket 3.5 21:00:39 14° SSE 21:05:05 81° WSW 21:10:10 10° NNW
Cosmos 1937 Rocket 3.5 21:00:20 10° S 21:05:24 63° ESE 21:10:33 10° NNE
Cosmos 44 4.3 21:00:55 10° NW 21:06:02 43° WSW 21:10:07 14° S
Cosmos 2228 Rocket 3.5 21:03:40 10° SSW 21:08:06 65° WNW 21:12:36 10° N
Lacrosse 5 3.9 21:09:47 11° ESE 21:09:47 11° ESE 21:10:15 10° E
Cosmos 1743 2.7 21:04:37 10° N 21:08:30 73° ENE 21:11:02 21° SSE
SPOT 1/Viking Rocket 4.1 21:05:52 10° S 21:10:55 56° W 21:16:02 10° NNW
RESURS DK-1 3.3 21:07:20 10° NNW 21:11:16 39° NE 21:13:58 18° ESE
Cosmos 2084 Rocket 4.4 21:09:34 10° WNW 21:13:33 38° SW 21:16:25 18° S
Resurs 01 Rocket 3.5 21:10:01 10° SSW 21:13:45 26° W 21:17:30 10° NW
Cosmos 1707 Rocket 3.5 21:14:44 16° S 21:18:15 73° E 21:22:41 10° NNE
Meteor 1-27 Rocket 4.1 21:12:52 10° SSW 21:18:45 72° WNW 21:24:43 10° N
CARTOSAT-1 3.8 21:15:33 17° S 21:18:52 66° WSW 21:23:11 10° NNW
Cosmos 489 Rocket 4.5 21:13:58 10° NNW 21:20:16 81° ENE 21:24:44 20° SSE
Cosmos 2366 rocket 4.4 21:15:19 10° N 21:21:21 51° ENE 21:25:28 21° SE
CZ-4B DEB 4.4 21:22:08 30° SE 21:23:30 61° ENE 21:26:41 10° N
Cosmos 858 Rocket 4.4 21:19:10 10° SSW 21:24:23 84° ESE 21:29:40 10° NNE
Cosmos 1867 3.9 21:23:54 13° S 21:28:29 44° ESE 21:33:40 10° NE
SJ 16-02 4.1 21:25:23 10° WSW 21:28:48 21° NW 21:32:13 10° N
Tianhe-1 3.0 21:26:42 10° SW 21:28:08 17° SSW 21:28:08 17° SSW
DNEPR-1 R/B 4.1 21:23:45 10° SW 21:29:37 82° NW 21:34:28 10° NE
Cosmos 2181 Rocket 4.2 21:25:49 20° SSE 21:29:58 53° E 21:35:54 10° NNE
Meteor 1-19 Rocket 4.3 21:28:38 21° SSE 21:32:06 55° E 21:37:25 10° NNE
Cosmos 2297 4.0 21:28:32 10° SW 21:34:12 69° WNW 21:39:53 10° NNE
Cosmos 44 Rocket 4.2 21:29:28 10° NNW 21:34:33 47° NE 21:38:15 17° ESE
BREEZE-M R/B 1.7 21:33:25 10° W 21:35:49 67° SSW 21:36:27 45° SE
SL-27 R/B 3.7 21:33:49 10° N 21:36:48 29° ENE 21:38:02 23° E
BREEZE M DEB (TANK) 3.1 21:35:09 10° W 21:37:17 19° SW 21:37:17 19° SW
Cosmos 372 Rocket 3.9 21:36:41 16° SSW 21:40:46 71° ESE 21:45:53 10° NNE
Terra 1.8 21:38:39 24° S 21:41:31 79° WSW 21:46:19 10° NNW
Cosmos 1515 3.7 21:39:36 23° SSW 21:41:53 82° WNW 21:45:41 10° N
Cosmos 1733 Rocket 3.1 21:38:28 10° NNW 21:42:49 76° W 21:45:11 26° S
Cosmos 2082 Rocket 4.4 21:41:03 10° WNW 21:44:19 16° W 21:47:35 10° SW
Cosmos 1943 Rocket 2.4 21:38:48 10° SW 21:44:25 74° WNW 21:50:02 10° NNE
Cosmos 1340 Rocket 4.2 21:41:43 10° NNW 21:45:24 33° W 21:48:11 15° SSW
USA 215 4.3 21:41:12 10° ENE 21:47:22 46° N 21:53:33 10° WNW
Cosmos 1656 Rocket 3.9 21:46:52 25° S 21:49:43 47° ESE 21:55:01 10° NE
ATLAS 2AS CENTAUR R/B 4.0 21:44:29 10° NW 21:50:31 29° WSW 21:55:12 14° SSW
Cosmos 2341 Rocket 4.2 21:44:15 10° NNW 21:50:39 71° W 21:55:10 20° S
Okean 1 3.3 21:49:16 24° SSW 21:51:33 78° W 21:55:33 10° N
Cosmos 2218 Rocket 4.0 21:47:42 10° N 21:54:05 86° E 21:58:01 25° S
ALOS 2 4.5 21:51:57 14° E 21:54:11 20° ENE 21:57:24 10° NNE
Cosmos 494 Rocket 4.2 21:53:05 10° NNW 21:58:14 59° ENE 22:00:49 28° SE
ARIANE 5 R/B 4.3 21:56:25 12° SSW 21:59:33 25° W 22:03:11 10° NW
SL-8 Rocket 4.1 21:56:25 10° NNW 22:02:44 73° W 22:06:45 24° S
H-2A R/B 3.6 21:59:24 10° N 22:03:35 73° WNW 22:05:59 24° SSW
Cosmos 1908 Rocket 3.6 22:00:20 10° N 22:04:50 72° ENE 22:06:34 36° SSE
Cosmos 2298 Rocket 4.2 22:02:56 30° S 22:05:22 55° ESE 22:10:33 10° NNE
Cosmos 1461 4.1 22:01:47 10° WSW 22:06:21 48° NW 22:10:48 10° NNE
NOSS 2-1 (C) 4.3 22:06:12 10° NW 22:10:47 64° NE 22:14:45 22° ESE
Cosmos 2369 Rocket 2.3 22:08:17 11° SSW 22:13:39 80° WNW 22:19:22 10° NNE
ATLAS CENTAUR R/B 0.9 22:12:29 37° SSW 22:13:49 77° SE 22:17:40 10° NE
NOSS 2-1 (D) 4.2 22:13:02 10° NW 22:17:40 71° NE 22:21:25 24° SE
Cosmos 1238 Rocket 4.4 22:15:06 10° NNW 22:20:24 42° W 22:23:11 21° SSW
Okean 1-7 3.0 22:21:21 43° SSE 22:22:32 63° E 22:26:49 10° NNE
COSMOS 2487 3.8 22:21:12 10° N 22:24:12 28° ENE 22:24:59 26° E
Cosmos 2344 4.3 22:17:13 10° NW 22:26:15 86° NE 22:35:50 20° SE
Spot 4 4.0 22:24:53 36° SE 22:26:49 66° ENE 22:31:38 10° N
Cosmos 2242 Rocket 3.5 22:27:54 41° S 22:29:26 81° E 22:33:57 10° NNE
Okean 2 Rocket 4.5 22:26:11 10° N 22:29:59 28° ENE 22:31:30 23° ESE
Cosmos 2150 Rocket 3.9 22:28:55 30° SSW 22:31:38 82° ESE 22:36:55 10° NNE
Cosmos 1975 3.8 22:28:25 10° NNW 22:32:10 39° W 22:33:30 29° SW
Cosmos 1125 Rocket 3.4 22:31:07 35° S 22:33:16 69° ESE 22:38:28 10° NNE
ISS -3.1 22:30:25 10° WNW 22:33:45 56° N 22:36:27 15° E
Cosmos 1703 Rocket 3.5 22:34:26 43° S 22:35:53 88° E 22:40:21 10° N
Cosmos 1782 Rocket 3.5 22:33:12 10° N 22:37:39 86° ENE 22:38:55 47° SSE
Cosmos 1378 3.2 22:38:54 53° ESE 22:39:13 55° E 22:42:53 10° NNE
Cosmos 1607 4.3 22:40:04 10° SW 22:46:31 71° NW 22:53:02 10° NE
RESURS DK-1 3.7 22:45:39 10° NW 22:49:09 26° WSW 22:49:50 25° SW
Cosmos 724 4.4 22:46:12 28° SSW 22:49:34 71° ESE 22:55:49 10° NE
Lacrosse 5 1.9 22:48:53 40° SSW 22:50:26 56° SE 22:55:25 10° ENE
Cosmos 1934 Rocket 4.2 22:46:35 10° N 22:52:38 61° ENE 22:55:20 33° SE
Cosmos 1805 3.5 22:51:15 10° N 22:55:06 55° ENE 22:55:42 49° ESE
Cosmos 1066 Rocket 4.3 22:55:52 39° SSE 22:57:57 66° E 23:03:30 10° NNE
Cosmos 1356 Rocket 3.5 22:56:36 10° NNW 23:00:54 69° W 23:01:50 51° SSW
Cosmos 2227 Rocket 3.7 22:57:40 10° NNW 23:02:41 31° NE 23:07:26 11° ESE
Cosmos 2297 Rocket 3.3 22:59:20 10° NNW 23:04:40 39° NE 23:08:40 17° ESE
Cosmos 1821 Rocket 4.2 22:58:37 10° NNW 23:04:59 67° W 23:07:52 34° SSW
Okean 3 3.4 23:06:38 54° SSW 23:07:34 82° W 23:11:48 10° N
Meteor 1-12 Rocket 4.4 23:04:15 10° NNW 23:10:00 63° W 23:12:13 37° SSW
SL-27 R/B 4.2 23:09:08 10° NW 23:11:32 20° W 23:11:32 20° W
NOSS 2-1 (E) 4.4 23:10:13 10° NW 23:15:09 60° SW 23:17:29 38° S
Cosmos 44 Rocket 4.1 23:11:16 10° NW 23:16:02 37° WSW 23:16:57 34° SW
Cosmos 1766 3.3 23:12:45 10° N 23:16:42 66° E 23:17:13 58° ESE
Meteor 1-15 Rocket 4.2 23:11:48 10° NNW 23:17:35 86° WSW 23:19:48 40° S
Okean 1 Rocket 4.3 23:14:08 10° N 23:18:04 32° ENE 23:19:30 25° ESE
Terra 4.3 23:18:52 10° W 23:20:04 11° W 23:21:16 10° WNW
Cosmos 1674 Rocket 4.4 23:19:33 34° ESE 23:20:22 37° E 23:24:29 10° NNE
Cosmos 2221 Rocket 3.6 23:23:40 53° SSE 23:24:39 72° E 23:29:12 10° NNE
COSMOS 2455 2.9 23:19:35 10° NW 23:25:39 81° NE 23:28:40 31° SE
USA 215 3.8 23:23:27 10° E 23:29:50 59° NNE 23:36:15 10° WNW
ALOS 2 2.9 23:29:20 46° SW 23:30:10 54° W 23:34:30 10° NNW
Nimbus 7 Rocket 4.4 23:24:20 10° NNE 23:30:15 74° ESE 23:32:34 39° S
COBE Rocket 4.1 23:31:00 44° SSW 23:32:33 66° W 23:37:44 10° NNW
Cosmos 1300 Rocket 3.7 23:29:11 10° NNW 23:33:31 59° W 23:34:19 49° SW
Cosmos 1269 Rocket 4.2 23:28:30 10° NNW 23:33:42 58° WSW 23:35:08 43° SSW
USA 81 4.1 23:29:22 10° N 23:34:41 71° E 23:36:30 41° SSE
Cosmos 1470 3.7 23:32:01 10° N 23:35:44 39° ENE 23:36:35 34° ESE
Cosmos 2251 Rocket 4.1 23:35:06 10° NNW 23:40:15 53° ENE 23:42:54 27° SE
EO 1 Del DPAF 4.1 23:42:22 10° NNE 23:45:49 34° E 23:45:57 34° ESE
Cosmos 1733 3.7 23:43:04 10° NNW 23:46:44 46° W 23:46:57 45° WSW
Cosmos 1842 3.2 23:46:42 61° SE 23:47:02 64° E 23:50:54 10° NNE
Meteor 1-23 Rocket 4.4 23:46:20 36° SSW 23:48:46 71° WNW 23:54:36 10° N
Thor Agena Rocket 3.5 23:45:40 10° NNE 23:51:00 83° ESE 23:52:46 43° S
ATLAS CENTAUR R/B 3.7 23:50:21 10° W 23:53:11 20° NNW 23:56:06 10° NNE
